Meteopurmerend
purmerend
Purmerend - Baaienwijk



My webcam  My webcam


waarschuwing voor Onweer Meer informatie blitzortung!


Regen radar Meer informatie rain snow radar


Bezoek onze andere website:

CandyAppleRed WebdesignWebdesign Purmerend Candy Apple Red

MeteopurmerendBlog

Template documentation
and downloads



Onweer van: 19-06-2019 10:00 tot: 23:00 waarschuwing voor: Onweer niveau: Geel info button
Enkele onweersbuien, mogelijk met hagel en windstoten tot ca. 75 km/uur.Verkeer en buitenactiviteiten kunnen hinder ondervinden.Mijd open water en open gebied, schuil niet onder bomen.Volg weerberichten en waarschuwingen.

15 daagse weersverwachting Magdeburg (DE)

  • Overzicht
  • Per uur
  • 15 dagen
  • Extra
  • Vergelijk
  • Kaarten
  • Dagkaart
  • Meer »
  • Info
  • Statistieken
  • Directe link
    Temp 6h Neerslag Wind  
 04:54     21:37    Daglengte: 16:43 Vandaag
14:00
31°
 
3
20:00
29°
 
2
 04:54     21:37    Daglengte: 16:43 Morgen
02:00
21°
 
2
08:00
22°
 
3
14:00
25°
2.1 mm
4
20:00
22°
8.4 mm
3
warningclass
 04:54     21:38    Daglengte: 16:44 Vrijdag 21 Jun
02:00
17°
 
3
08:00
18°
 
3
14:00
23°
 
3
20:00
22°
 
3
 04:54     21:38    Daglengte: 16:44 Zaterdag 22 Jun
02:00
15°
 
3
08:00
17°
 
3
Locatie info
Region: Sachsen-Anhalt
Latitude: 52.1305°N
Longitude: 11.6315°E
57 masl
Postcode: 39104
Temp/Neerslag /Baro Onweer/Dauwpunt
    Temp Baro 1h Neerslag Dauwpunt Wind UV Bewolking  
 04:54     21:37    Daglengte: 16:43 Vandaag
14:00
31°
Voelt als: 30.1°
1008.4 hPa   14.0°
3
Windvlaag: 2.5 m/s
47%
15:00
31°
Voelt als: 30.5°
1008.0 hPa
11%
13.6°
3
Windvlaag: 2.5 m/s
17%
16:00
32°
Voelt als: 30.6°
1007.5 hPa
16%
13.0°
3
Windvlaag: 2.4 m/s
30%
17:00
32°
Voelt als: 30.7°
1007.0 hPa
27%
13.2°
3
Windvlaag: 2.3 m/s
9%
18:00
31°
Voelt als: 30.1°
1006.8 hPa
27%
12.7°
4
Windvlaag: 2.2 m/s
12%
19:00
30°
Voelt als: 29.6°
1006.7 hPa   13.5°
3
Windvlaag: 2.2 m/s
11%
20:00
29°
Voelt als: 29.2°
1006.6 hPa   15.0°
2
Windvlaag: 2.1 m/s
9%
21:00
27°
1006.9 hPa   16.2°
2
Windvlaag: 2.2 m/s
9%
22:00
26°
1007.1 hPa   17.2°
2
Windvlaag: 1.9 m/s
26%
23:00
24°
1007.5 hPa   17.9°
2
Windvlaag: 2.2 m/s
13%
 04:54     21:37    Daglengte: 16:43 Morgen
00:00
23°
1007.4 hPa   18.5°
2
Windvlaag: 2.7 m/s
9%
01:00
21°
1007.5 hPa
12%
18.6°
2
Windvlaag: 2.7 m/s
4%
02:00
21°
1007.6 hPa   18.1°
2
Windvlaag: 1.2 m/s
6%
03:00
20°
1007.5 hPa   17.8°
2
Windvlaag: 0.8 m/s
18%
04:00
20°
1007.7 hPa   17.2°
2
Windvlaag: -0.5 m/s
16%
05:00
19°
1008.0 hPa   16.6°
2
Windvlaag: 0.9 m/s
31%
06:00
20°
1008.2 hPa   16.4°
3
Windvlaag: 0.2 m/s
32%
07:00
21°
1008.7 hPa   17.0°
3
Windvlaag: 0.6 m/s
32%
08:00
22°
1009.1 hPa   17.2°
3
Windvlaag: 0.1 m/s
13%
09:00
23°
1009.5 hPa
31%
16.0°
4
Windvlaag: 0.2 m/s
21%
10:00
24°
1009.8 hPa
37%
15.4°
4
Windvlaag: 0.6 m/s
33%
11:00
24°
1010.1 hPa
78%
15.8°
4
Windvlaag: 1.1 m/s
46%
12:00
25°
1009.9 hPa
70%
15.5°
4
Windvlaag: 0.1 m/s
60%
13:00
26°
1010.0 hPa
26%
15.1°
4
Windvlaag: -0.7 m/s
58%
14:00
25°
1010.1 hPa 2.1 mm
73%
14.3°
4
Windvlaag: -2.5 m/s
78%
15:00
25°
1010.0 hPa 2.4 mm
82%
14.1°
4
Windvlaag: -3.1 m/s
39% warningclass
16:00
26°
1009.9 hPa
82%
14.6°
4
Windvlaag: -1 m/s
44%
17:00
25°
1009.9 hPa
82%
15.4°
4
Windvlaag: -1.2 m/s
29%
18:00
25°
1010.1 hPa
82%
14.4°
4
Windvlaag: -1.4 m/s
58%
19:00
23°
1010.6 hPa 3.1 mm
68%
15.4°
4
Windvlaag: -1.7 m/s
52% warningclass
20:00
22°
1011.2 hPa 2.9 mm
21%
16.2°
3
Windvlaag: -1.5 m/s
65% warningclass
21:00
22°
1011.7 hPa
14%
16.2°
3
Windvlaag: -0.8 m/s
52%
22:00
20°
1012.5 hPa
14%
16.1°
3
Windvlaag: -0.6 m/s
35%
23:00
19°
1013.0 hPa
14%
16.0°
3
Windvlaag: -0.7 m/s
17%
 04:54     21:38    Daglengte: 16:44 Vrijdag 21 Jun
00:00
19°
1013.5 hPa
19%
16.0°
3
Windvlaag: -0.6 m/s
25%
01:00
18°
1013.9 hPa
15%
16.0°
3
Windvlaag: -0.5 m/s
30%
02:00
17°
1014.0 hPa
15%
15.8°
3
Windvlaag: -0.8 m/s
20%
03:00
17°
1014.3 hPa
14%
15.5°
2
Windvlaag: -0.9 m/s
19%
04:00
16°
1014.7 hPa
14%
15.1°
3
Windvlaag: -0.8 m/s
56%
05:00
16°
1015.0 hPa
14%
14.8°
3
Windvlaag: -0.7 m/s
75%
06:00
17°
1015.5 hPa
14%
14.9°
3
Windvlaag: -0.7 m/s
81%
07:00
17°
1016.1 hPa
14%
14.8°
3
Windvlaag: -0.5 m/s
66%
08:00
18°
1016.6 hPa
14%
14.6°
3
Windvlaag: -0.3 m/s
61%
09:00
18°
1017.1 hPa
14%
14.2°
3
Windvlaag: -0.5 m/s
59%
10:00
19°
1017.4 hPa
14%
13.8°
3
Windvlaag: -0.9 m/s
41%
11:00
20°
1017.8 hPa
21%
14.6°
3
Windvlaag: -1 m/s
37%
12:00
21°
1017.8 hPa
21%
14.0°
3
Windvlaag: -0.9 m/s
18%
13:00
22°
1017.5 hPa
21%
12.8°
3
Windvlaag: -0.9 m/s
36%
14:00
23°
1017.1 hPa
21%
12.2°
3
Windvlaag: -0.7 m/s
11%
15:00
24°
1016.8 hPa
21%
11.1°
4
Windvlaag: -1.3 m/s
11%
16:00
24°
1016.8 hPa
21%
10.7°
4
Windvlaag: -1.3 m/s
12%
17:00
24°
1017.0 hPa
21%
10.2°
4
Windvlaag: -1.3 m/s
18%
18:00
23°
1017.1 hPa
21%
9.3°
3
Windvlaag: -1.5 m/s
14%
19:00
23°
1017.4 hPa
21%
8.1°
3
Windvlaag: -1.5 m/s
6%
20:00
22°
1017.8 hPa
21%
8.0°
3
Windvlaag: -1.5 m/s
6%
21:00
21°
1018.3 hPa
21%
9.1°
3
Windvlaag: -1.6 m/s
5%
22:00
19°
1019.1 hPa
21%
9.9°
3
Windvlaag: -4 m/s
2%
23:00
18°
1019.9 hPa
21%
10.2°
3
Windvlaag: -4 m/s
14%
 04:54     21:38    Daglengte: 16:44 Zaterdag 22 Jun
00:00
17°
1020.4 hPa
21%
9.8°
3
Windvlaag: -3.3 m/s
0%
01:00
16°
1020.8 hPa
21%
10.9°
3
Windvlaag: -2.7 m/s
1%
02:00
15°
1021.1 hPa
21%
11.4°
3
Windvlaag: -2.2 m/s
2%
03:00
15°
1021.4 hPa
21%
11.5°
2
Windvlaag: -2.1 m/s
3%
04:00
14°
1021.5 hPa
21%
11.7°
2
Windvlaag: -1.6 m/s
4%
05:00
14°
1021.8 hPa
21%
11.8°
3
Windvlaag: -1.1 m/s
1%
06:00
14°
1022.3 hPa
21%
12.0°
3
Windvlaag: -1.8 m/s
4%
07:00
16°
1022.6 hPa
21%
11.8°
3
Windvlaag: -1.9 m/s
4%
08:00
17°
1022.8 hPa
21%
12.0°
3
Windvlaag: -2 m/s
5%
09:00
18°
1022.6 hPa
21%
12.1°
3
Windvlaag: 8 m/s
9%
10:00
19°
1022.5 hPa
21%
12.2°
3
Windvlaag: 8.3 m/s
16%
11:00
20°
1022.3 hPa
21%
12.0°
3
Windvlaag: 6.9 m/s
44%
12:00
21°
1022.2 hPa
21%
11.7°
3
Windvlaag: 7.6 m/s
56%
13:00
22°
1021.9 hPa
21%
11.3°
3
Windvlaag: 7.2 m/s
49%
Temp/Neerslag /Baro Onweer/Dauwpunt
    Temp Baro Neerslag Dauwpunt Wind Bewolking  
 04:54     21:37    Daglengte: 16:43 Vandaag
14:00
31°
Voelt als: 30.1°
1008.4 hPa   14.0°
3
47%
17:00
32°
Voelt als: 30.7°
1007.0 hPa   13.2°
3
9%
20:00
29°
Voelt als: 29.2°
1006.6 hPa   15.0°
2
9%
23:00
24°
1007.5 hPa   17.9°
2
13%
 04:54     21:37    Daglengte: 16:43 Morgen
02:00
21°
1007.6 hPa   18.1°
2
6%
05:00
19°
1008.0 hPa   16.6°
2
31%
08:00
22°
1009.1 hPa   17.2°
3
13%
11:00
24°
1010.1 hPa   15.8°
4
46%
14:00
25°
1010.1 hPa 2.1 mm 14.3°
4
78%
17:00
25°
1009.9 hPa 2.4 mm 15.4°
4
29%
20:00
22°
1011.2 hPa 6.0 mm 16.2°
3
65% warningclass
23:00
19°
1013.0 hPa   16.0°
3
17%
 04:54     21:38    Daglengte: 16:44 Vrijdag 21 Jun
02:00
17°
1014.0 hPa   15.8°
3
20%
05:00
16°
1015.0 hPa   14.8°
3
75%
08:00
18°
1016.6 hPa   14.6°
3
61%
11:00
20°
1017.8 hPa   14.6°
3
37%
14:00
23°
1017.1 hPa   12.2°
3
11%
17:00
24°
1017.0 hPa   10.2°
4
18%
20:00
22°
1017.8 hPa   8.0°
3
6%
23:00
18°
1019.9 hPa   10.2°
3
14%
 04:54     21:38    Daglengte: 16:44 Zaterdag 22 Jun
02:00
15°
1021.1 hPa   11.4°
3
2%
05:00
14°
1021.8 hPa   11.8°
3
1%
08:00
17°
1022.8 hPa   12.0°
3
5%
11:00
20°
1022.3 hPa   12.0°
3
44%
14:00
23°
1021.7 hPa   10.7°
3
72%
17:00
22°
1021.3 hPa 9.5 mm 9.4°
3
51%
20:00
22°
1021.1 hPa 9.5 mm 9.3°
4
32%
23:00
19°
1022.2 hPa 9.5 mm 9.8°
4
59%
 04:55     21:38    Daglengte: 16:43 Zondag 23 Jun
02:00
16°
1023.2 hPa 9.5 mm 9.4°
3
85%
05:00
16°
1023.8 hPa 9.5 mm 7.7°
3
59%
08:00
16°
1024.5 hPa 9.5 mm 5.8°
3
32%
11:00
21°
1024.2 hPa 9.5 mm 7.0°
3
16%
14:00
25°
1024.0 hPa 9.5 mm 7.4°
3
0%
17:00
24°
1023.5 hPa 9.5 mm 7.0°
3
0%
20:00
23°
1023.1 hPa 9.5 mm 7.1°
3
0%
23:00
19°
1024.4 hPa 9.5 mm 7.0°
3
0%
 04:55     21:38    Daglengte: 16:43 Maandag 24 Jun
02:00
15°
1025.6 hPa 9.5 mm 6.2°
3
0%
05:00
16°
1026.0 hPa 9.5 mm 7.0°
2
0%
08:00
17°
1026.4 hPa 9.5 mm 7.7°
2
0%
11:00
22°
1025.8 hPa 9.5 mm 8.3°
2
0%
14:00
27°
Voelt als: 26.3°
1025.1 hPa 9.5 mm 7.3°
2
0%
17:00
27°
Voelt als: 26.2°
1024.5 hPa 9.5 mm 7.6°
3
0%
20:00
26°
Voelt als: 26.1°
1023.9 hPa 9.5 mm 8.1°
3
0%
23:00
22°
1025.0 hPa 9.5 mm 6.9°
3
0%
 04:55     21:38    Daglengte: 16:43 Dinsdag 25 Jun
02:00
19°
1026.0 hPa 9.5 mm 5.5°
3
0%
05:00
19°
1026.2 hPa 9.5 mm 6.0°
3
6%
08:00
21°
1026.5 hPa 9.5 mm 6.6°
3
13%
11:00
26°
Voelt als: 25.8°
1025.9 hPa 9.5 mm 7.7°
3
40%
14:00
31°
Voelt als: 29.0°
1025.3 hPa 9.5 mm 8.0°
4
67%
17:00
30°
Voelt als: 28.4°
1024.6 hPa 9.5 mm 8.0°
3
77%
20:00
29°
Voelt als: 27.7°
1023.9 hPa 9.5 mm 8.5°
3
87%
23:00
24°
1024.5 hPa 9.5 mm 8.8°
3
43%
 04:56     21:38    Daglengte: 16:42 Woensdag 26 Jun
02:00
19°
1025.1 hPa 9.5 mm 8.4°
2
0%
05:00
21°
1025.0 hPa 9.5 mm 9.3°
3
0%
08:00
22°
1025.0 hPa 9.5 mm 10.3°
3
0%
11:00
28°
Voelt als: 27.0°
1023.9 hPa   10.3°
4
32%
14:00
33°
Voelt als: 30.7°
1022.7 hPa 18.9 mm 8.1°
4
64%
20:00
31°
Voelt als: 29.5°
1019.8 hPa 18.9 mm 10.0°
2
0%
 04:56     21:38    Daglengte: 16:42 Donderdag 27 Jun
02:00
23°
1019.2 hPa 18.9 mm 11.8°
2
0%
08:00
25°
1017.0 hPa 18.9 mm 13.7°
2
0%
14:00
36°
Voelt als: 36.0°
1014.8 hPa 18.9 mm 14.4°
3
0%
20:00
35°
1012.7 hPa 18.9 mm 18.0°
2
0%
 04:57     21:38    Daglengte: 16:41 Vrijdag 28 Jun
02:00
24°
1012.8 hPa 18.9 mm 19.6°
1
0%
08:00
28°
1012.1 hPa 18.9 mm 18.2°
2
31%
14:00
36°
1011.1 hPa 18.9 mm 18.6°
6
0%
20:00
33°
Voelt als: 32.7°
1011.8 hPa 21.6 mm 15.1°
4
77%
 04:58     21:38    Daglengte: 16:40 Zaterdag 29 Jun
02:00
23°
1013.3 hPa 23.7 mm 16.1°
2
11%
08:00
17°
1014.4 hPa 0.3 mm 12.8°
2
30%
14:00
24°
1013.5 hPa 0.6 mm 12.5°
2
27%
20:00
23°
1012.6 hPa 0.3 mm 14.0°
2
32%
 04:58     21:37    Daglengte: 16:39 Zondag 30 Jun
02:00
16°
1013.7 hPa 0.4 mm 11.2°
0
25%
08:00
18°
1013.4 hPa 0.3 mm 12.4°
1
25%
14:00
24°
1012.4 hPa 0.7 mm 13.1°
2
42%
20:00
22°
1011.7 hPa 0.7 mm 14.4°
1
45%
 04:59     21:37    Daglengte: 16:38 Maandag 01 Jul
02:00
16°
1012.8 hPa 0.6 mm 11.9°
1
29%
08:00
17°
1013.0 hPa 0.5 mm 12.2°
2
28%
14:00
23°
1012.2 hPa 1.0 mm 12.6°
2
39%
20:00
22°
1011.5 hPa 0.8 mm 14.0°
2
45%
 05:00     21:37    Daglengte: 16:37 Dinsdag 02 Jul
02:00
15°
1012.5 hPa 0.6 mm 11.9°
1
30%
08:00
16°
1012.8 hPa 1.2 mm 12.3°
2
34%
14:00
22°
1012.1 hPa 1.0 mm 12.6°
3
43%
20:00
21°
1011.9 hPa 1.6 mm 13.4°
3
48%
 05:00     21:36    Daglengte: 16:36 Woensdag 03 Jul
02:00
14°
1013.8 hPa 1.3 mm 10.7°
2
40%
08:00
15°
1014.5 hPa 0.5 mm 11.1°
3
36%
14:00
21°
1014.4 hPa 0.6 mm 10.8°
4
37%
20:00
20°
1014.1 hPa 0.5 mm 12.5°
3
43%
 05:01     21:36    Daglengte: 16:35 Donderdag 04 Jul
02:00
14°
1015.6 hPa 0.3 mm 10.7°
2
33%
08:00
16°
1016.3 hPa 0.2 mm 11.5°
3
41%
  CAPE Lifted Index Hail Supercell Tornado SRH 3km CL BTM PRES CL TOP PRES Swiss DWD icon SMHI TS
 04:54     21:37    Daglengte: 16:43 Vandaag
14:00 1299 J/kg -5.2 K 0 % 0 % 0 % 0 m²/s² 0 0 -1.69 3
15:00 1139 J/kg -4.7 K 0 % 0 % 0 % 0 m²/s² 0 0 -2.39 0
16:00 1387 J/kg -5.1 K 0 % 0 % 0 % 0 m²/s² 0 0 -2.34 0
17:00 1317 J/kg -5.2 K 0 % 0 % 0 % 0 m²/s² 0 0 -2.53 2
18:00 1150 J/kg -4.8 K 0 % 0 % 0 % 0 m²/s² 0 0 -2.28 1
19:00 1109 J/kg -4.4 K 0 % 0 % 0 % 0 m²/s² 0 0 -1.31 0
20:00 1433 J/kg -5.1 K 0 % 0 % 0 % 0 m²/s² 0 0 -1.47 0
21:00 1740 J/kg -5.6 K 0 % 0 % 0 % 0 m²/s² 0 0 -2.42 3
22:00 1281 J/kg -4.4 K 0 % 0 % 0 % 0 m²/s² 0 0 -1.79 0
23:00 944 J/kg -4.2 K 0 % 0 % 0 % 0 m²/s² 0 0 -2.04 1
 04:54     21:37    Daglengte: 16:43 Morgen
00:00 638 J/kg -3.3 K 0 % 0 % 0 % 0 m²/s² 0 0 -1.32 1
01:00 388 J/kg -3.5 K 0 % 0 % 0 % 0 m²/s² 0 0 -1.52 2
02:00 244 J/kg -3.8 K 0 % 0 % 0 % 0 m²/s² 0 0 -1.64 0
03:00 303 J/kg -3.6 K 0 % 0 % 0 % 0 m²/s² 0 0 -1.56 1
04:00 503 J/kg -3.5 K 0 % 0 % 0 % 0 m²/s² 0 0 -2.15 0
05:00 485 J/kg -3.8 K 0 % 0 % 0 % 0 m²/s² 0 0 -2.45 1
06:00 222 J/kg -3.0 K 0 % 0 % 0 % 0 m²/s² 0 0 -1.59 1
07:00 440 J/kg -3.4 K 0 % 0 % 0 % 0 m²/s² 0 0 -2.35 1
08:00 793 J/kg -3.6 K 0 % 0 % 0 % 0 m²/s² 0 0 -2.7 2
09:00 698 J/kg -2.8 K 0 % 0 % 0 % 0 m²/s² 0 0 -1.84 3
10:00 506 J/kg -2.4 K 0 % 0 % 0 % 0 m²/s² 0 0 -2.31 80
11:00 222 J/kg -0.7 K 0 % 0 % 0 % 0 m²/s² 0 0 -0.34 3
12:00 37 J/kg 0.1 K 0 % 0 % 0 % 0 m²/s² 0 0 0.58 2
13:00 143 J/kg -0.8 K 0 % 0 % 0 % 0 m²/s² 0 0 1.72 3
14:00 443 J/kg -1.8 K 0 % 0 % 0 % 0 m²/s² 0 0 0.36 80
15:00 850 J/kg -2.8 K 0 % 0 % 0 % 0 m²/s² 0 0 -2.08 80
16:00 172 J/kg -1.1 K 0 % 0 % 0 % 0 m²/s² 0 0 0.85 3
17:00 121 J/kg -0.7 K 0 % 0 % 0 % 0 m²/s² 0 0 1.31 80
18:00 394 J/kg -1.8 K 0 % 0 % 0 % 0 m²/s² 0 0 -0.33 3
19:00 1018 J/kg -3.7 K 0 % 0 % 0 % 0 m²/s² 0 0 -2.23 80
20:00 1178 J/kg -4.3 K 0 % 0 % 0 % 0 m²/s² 0 0 -2.71 3
21:00 1135 J/kg -4.3 K 0 % 0 % 0 % 0 m²/s² 0 0 -2.68 3
22:00 862 J/kg -3.1 K 0 % 0 % 0 % 0 m²/s² 0 0 -1.75 3
23:00 571 J/kg -2.5 K 0 % 0 % 0 % 0 m²/s² 0 0 -1.03 2
 04:54     21:38    Daglengte: 16:44 Vrijdag 21 Jun
00:00 299 J/kg -1.8 K 0 % 0 % 0 % 0 m²/s² 0 0 -0.18 3
01:00 0 J/kg -0.7 K 0 % 0 % 0 % 0 m²/s² 0 0 1.04 3
02:00 0 J/kg 0.7 K 0 % 0 % 0 % 0 m²/s² 0 0 2.83 1
03:00 0 J/kg 0.8 K 0 % 0 % 0 % 0 m²/s² 0 0 3.2 0
04:00 0 J/kg 0.4 K 0 % 0 % 0 % 0 m²/s² 0 0 2.65 2
05:00 0 J/kg 0.9 K 0 % 0 % 0 % 0 m²/s² 0 0 3.66 3
06:00 0 J/kg 1.0 K 0 % 0 % 0 % 0 m²/s² 0 0 3.46 3
07:00 0 J/kg 1.4 K 0 % 0 % 0 % 0 m²/s² 0 0 3.92 3
08:00 0 J/kg 2.2 K 0 % 0 % 0 % 0 m²/s² 0 0 5.62 3
09:00 0 J/kg 3.0 K 0 % 0 % 0 % 0 m²/s² 0 0 6.42 3
10:00 0 J/kg 2.6 K 0 % 0 % 0 % 0 m²/s² 0 0 6.11 1
11:00 1 J/kg 2.2 K 0 % 0 % 0 % 0 m²/s² 0 0 6.01 1
12:00 53 J/kg 1.5 K 0 % 0 % 0 % 0 m²/s² 0 0 5.01 1
13:00 24 J/kg 1.5 K 0 % 0 % 0 % 0 m²/s² 0 0 5.82 3
14:00 22 J/kg 1.2 K 0 % 0 % 0 % 0 m²/s² 0 0 5.88 1
15:00 24 J/kg 1.2 K 0 % 0 % 0 % 0 m²/s² 0 0 6 1
16:00 24 J/kg 1.2 K 0 % 0 % 0 % 0 m²/s² 0 0 6.69 0
17:00 32 J/kg 1.3 K 0 % 0 % 0 % 0 m²/s² 0 0 7.24 1
18:00 33 J/kg 1.3 K 0 % 0 % 0 % 0 m²/s² 0 0 7.42 1
19:00 28 J/kg 1.4 K 0 % 0 % 0 % 0 m²/s² 0 0 7.55 0
20:00 25 J/kg 1.6 K 0 % 0 % 0 % 0 m²/s² 0 0 7.09 1
21:00 21 J/kg 2.2 K 0 % 0 % 0 % 0 m²/s² 0 0 7.72 1
22:00 1 J/kg 2.6 K 0 % 0 % 0 % 0 m²/s² 0 0 8.42 2
23:00 0 J/kg 2.9 K 0 % 0 % 0 % 0 m²/s² 0 0 8.72 3
 04:54     21:38    Daglengte: 16:44 Zaterdag 22 Jun
00:00 0 J/kg 3.2 K 0 % 0 % 0 % 0 m²/s² 0 0 8.69 0
01:00 0 J/kg 4.0 K 0 % 0 % 0 % 0 m²/s² 0 0 10.15 0
02:00 0 J/kg 3.8 K 0 % 0 % 0 % 0 m²/s² 0 0 8.87 0
03:00 0 J/kg 4.0 K 0 % 0 % 0 % 0 m²/s² 0 0 9.37 0
04:00 0 J/kg 3.5 K 0 % 0 % 0 % 0 m²/s² 0 0 8.87 0
05:00 0 J/kg 2.9 K 0 % 0 % 0 % 0 m²/s² 0 0 7.61 0
06:00 0 J/kg 2.0 K 0 % 0 % 0 % 0 m²/s² 0 0 6.62 0
07:00 0 J/kg 2.2 K 0 % 0 % 0 % 0 m²/s² 0 0 6.58 0
08:00 0 J/kg 2.3 K 0 % 0 % 0 % 0 m²/s² 0 0 5.96 0
09:00 0 J/kg 1.7 K 0 % 0 % 0 % 0 m²/s² 0 0 5.75 1
10:00 146 J/kg 0.4 K 0 % 0 % 0 % 0 m²/s² 0 0 4.27 1
11:00 125 J/kg 0.8 K 0 % 0 % 0 % 0 m²/s² 0 0 4.01 0
12:00 120 J/kg 0.7 K 0 % 0 % 0 % 0 m²/s² 0 0 2.77 1
13:00 75 J/kg 0.6 K 0 % 0 % 0 % 0 m²/s² 0 0 2.55 2
Temp Baro Wind Neerslag
  EWN Forecast EWN WRFDA DWD ICON FMI HIRLAM MET Norway GFS
 04:54     21:37    Daglengte: 16:43 Vandaag
14:00 30.8° 1008.4 hPa 3.0 m/s 0.0 mm 29.4° 1008.5 hPa 3.4 m/s 0.0 mm 30.8° 1008.4 hPa 3.3 m/s -2.0 mm 31.6° 1008.5 hPa 4.2 m/s 0.0 mm 30.2° 1008.4 hPa 2.6 m/s 0.0 mm 28.9° 1009.0 hPa 3.3 m/s
17:00 31.6° 1007.0 hPa 3.1 m/s 0.0 mm 30.3° 1007.7 hPa 3.0 m/s 0.0 mm 31.9° 1006.8 hPa 3.4 m/s 0.0 mm 32.3° 1007.0 hPa 3.9 m/s 0.0 mm 30.1° 1007.2 hPa 3.1 m/s 0.0 mm 28.8° 1007.4 hPa 4.4 m/s
20:00 29.4° 1006.6 hPa 2.3 m/s 0.0 mm 29.0° 1006.4 hPa 2.1 m/s 0.0 mm 29.4° 1006.4 hPa 2.0 m/s 0.0 mm 31.3° 1006.7 hPa 2.1 m/s 0.0 mm 27.3° 1007.2 hPa 2.3 m/s 0.0 mm 25.6° 1007.0 hPa 3.4 m/s
23:00 24.0° 1007.5 hPa 1.9 m/s 0.0 mm 21.4° 1007.1 hPa 2.9 m/s 0.0 mm 24.4° 1007.4 hPa 1.2 m/s 0.0 mm 24.8° 1008.1 hPa 0.2 m/s 0.0 mm 21.8° 1007.7 hPa 2.0 m/s 0.0 mm 18.6° 1007.9 hPa 2.4 m/s
 04:54     21:37    Daglengte: 16:43 Morgen
02:00 21.1° 1007.6 hPa 1.7 m/s 0.0 mm 18.5° 1007.6 hPa 2.6 m/s 0.0 mm 22.0° 1008.0 hPa 1.5 m/s 0.0 mm 21.3° 1007.3 hPa 1.7 m/s 0.0 mm 19.0° 1008.0 hPa 1.8 m/s 0.0 mm 16.5° 1008.6 hPa 1.3 m/s
05:00 18.9° 1008.0 hPa 2.1 m/s 0.0 mm 17.3° 1007.6 hPa 2.4 m/s 0.0 mm 19.7° 1008.4 hPa 0.6 m/s 0.0 mm 18.8° 1007.4 hPa 1.8 m/s 0.0 mm 17.7° 1008.9 hPa 1.8 m/s 0.0 mm 16.3° 1008.5 hPa 2.5 m/s
08:00 22.4° 1009.1 hPa 3.1 m/s 0.0 mm 22.0° 1008.4 hPa 2.2 m/s 0.0 mm 23.0° 1009.6 hPa 2.5 m/s 0.0 mm 22.3° 1008.4 hPa 5.1 m/s 0.0 mm 21.9° 1009.8 hPa 2.6 m/s 0.0 mm 20.0° 1009.5 hPa 3.5 m/s
11:00 24.3° 1010.1 hPa 3.8 m/s 0.0 mm 18.7° 1011.2 hPa 6.1 m/s 4.8 mm 23.4° 1010.8 hPa 2.6 m/s 1.3 mm 24.5° 1009.5 hPa 4.3 m/s 0.0 mm 24.7° 1010.0 hPa 3.3 m/s 0.0 mm 22.8° 1010.4 hPa 4.5 m/s
14:00 25.1° 1010.1 hPa 4.2 m/s 2.1 mm 22.7° 1010.0 hPa 2.6 m/s 26.7 mm 24.8° 1010.9 hPa 3.6 m/s 0.4 mm 26.5° 1009.6 hPa 4.7 m/s 0.0 mm 25.4° 1010.1 hPa 4.2 m/s 0.0 mm 23.4° 1010.6 hPa 4.1 m/s
17:00 25.3° 1009.9 hPa 3.7 m/s 2.4 mm 23.1° 1010.0 hPa 2.6 m/s 35.9 mm 23.2° 1011.3 hPa 3.5 m/s 1.6 mm 25.9° 1009.3 hPa 4.2 m/s 0.0 mm 25.4° 1009.9 hPa 3.6 m/s 0.0 mm 22.6° 1011.1 hPa 3.7 m/s
20:00 22.3° 1011.2 hPa 3.2 m/s 6.0 mm 22.4° 1010.4 hPa 1.8 m/s 40.8 mm 20.6° 1012.8 hPa 3.4 m/s 0.4 mm 24.3° 1009.9 hPa 4.2 m/s 0.0 mm 21.9° 1011.5 hPa 2.2 m/s 0.3 mm 19.7° 1011.7 hPa 2.4 m/s
23:00 19.3° 1013.0 hPa 3.3 m/s 0.0 mm 18.7° 1012.4 hPa 4.3 m/s 42.1 mm 18.0° 1014.1 hPa 1.9 m/s 0.0 mm 22.0° 1011.8 hPa 4.5 m/s 0.0 mm 19.0° 1013.0 hPa 2.2 m/s 0.0 mm 16.4° 1013.6 hPa 3.2 m/s
 04:54     21:38    Daglengte: 16:44 Vrijdag 21 Jun
02:00 17.5° 1014.0 hPa 2.8 m/s 0.0 mm 14.9° 1013.6 hPa 3.7 m/s 42.1 mm 16.7° 1015.2 hPa 2.0 m/s 0.0 mm 19.3° 1013.1 hPa 3.1 m/s 0.0 mm 17.4° 1014.0 hPa 2.2 m/s 0.0 mm 14.7° 1014.7 hPa 3.1 m/s
05:00 16.3° 1015.0 hPa 2.7 m/s 0.0 mm 13.9° 1015.0 hPa 3.2 m/s 42.1 mm 16.1° 1016.3 hPa 1.5 m/s 0.0 mm 17.0° 1014.0 hPa 3.3 m/s 0.0 mm 16.2° 1014.9 hPa 2.0 m/s 0.0 mm 13.7° 1016.2 hPa 3.5 m/s
08:00 17.6° 1016.6 hPa 3.1 m/s 0.0 mm 15.6° 1016.0 hPa 2.7 m/s 42.1 mm 17.1° 1017.3 hPa 3.4 m/s 0.0 mm 18.4° 1015.6 hPa 3.0 m/s 0.0 mm 17.6° 1016.7 hPa 2.8 m/s 0.0 mm 15.5° 1017.5 hPa 3.1 m/s
11:00 20.1° 1017.8 hPa 2.8 m/s 0.0 mm 20.0° 1016.9 hPa 1.0 m/s 42.1 mm 20.9° 1018.1 hPa 3.1 m/s 0.0 mm 19.1° 1017.9 hPa 2.7 m/s 0.0 mm 19.3° 1018.4 hPa 2.5 m/s
14:00 22.9° 1017.1 hPa 3.3 m/s 0.0 mm 22.8° 1016.3 hPa 1.0 m/s 42.1 mm 23.2° 1017.5 hPa 3.9 m/s 0.0 mm 22.1° 1017.2 hPa 3.4 m/s 0.0 mm 21.8° 1017.8 hPa 2.6 m/s
17:00 24.0° 1017.0 hPa 3.8 m/s 0.0 mm 24.0° 1015.8 hPa 1.3 m/s 42.1 mm 23.9° 1017.2 hPa 4.1 m/s 0.0 mm 23.2° 1017.3 hPa 3.9 m/s 0.0 mm 22.0° 1017.6 hPa 3.4 m/s
20:00 22.2° 1017.8 hPa 2.8 m/s 0.0 mm 23.5° 1015.6 hPa 2.3 m/s 42.1 mm 21.8° 1018.0 hPa 3.1 m/s 0.0 mm 21.9° 1018.2 hPa 2.4 m/s 0.0 mm 19.8° 1017.9 hPa 2.1 m/s
23:00 18.1° 1019.9 hPa 2.7 m/s 0.0 mm 18.2° 1016.8 hPa 2.7 m/s 42.1 mm 18.6° 1019.5 hPa 1.8 m/s 0.0 mm 17.2° 1020.2 hPa 2.2 m/s 0.0 mm 14.7° 1019.6 hPa 2.2 m/s
 04:54     21:38    Daglengte: 16:44 Zaterdag 22 Jun
02:00 15.5° 1021.1 hPa 2.5 m/s 0.0 mm 15.3° 1017.5 hPa 2.6 m/s 42.1 mm 15.1° 1021.3 hPa 1.9 m/s 0.0 mm 15.3° 1021.4 hPa 2.3 m/s 0.0 mm 12.7° 1020.4 hPa 2.7 m/s
05:00 14.0° 1021.8 hPa 2.6 m/s 0.0 mm 13.4° 1017.1 hPa 2.1 m/s 42.1 mm 13.2° 1022.3 hPa 1.9 m/s 0.0 mm 13.8° 1022.2 hPa 2.6 m/s 0.0 mm 11.5° 1020.7 hPa 2.4 m/s
08:00 17.2° 1022.8 hPa 3.2 m/s 0.0 mm 18.5° 1017.9 hPa 1.9 m/s 42.1 mm 15.9° 1023.6 hPa 2.8 m/s 0.0 mm 17.3° 1023.2 hPa 3.3 m/s 0.0 mm 15.7° 1021.3 hPa 3.0 m/s
11:00 20.3° 1022.3 hPa 3.2 m/s 0.0 mm 23.3° 1017.5 hPa 5.6 m/s 42.1 mm 20.3° 1023.5 hPa 2.8 m/s 0.0 mm 19.7° 1022.8 hPa 2.9 m/s 20.8° 1021.0 hPa 2.4 m/s
14:00 22.9° 1021.7 hPa 3.0 m/s 0.0 mm 25.4° 1016.1 hPa 6.8 m/s 42.1 mm 23.2° 1022.6 hPa 2.6 m/s 0.0 mm 22.1° 1022.3 hPa 2.5 m/s 22.8° 1019.8 hPa 3.0 m/s
17:00 22.3° 1021.3 hPa 3.4 m/s 9.5 mm 22.2° 1021.6 hPa 3.3 m/s 23.7° 1018.9 hPa 4.1 m/s 9.5 mm
20:00 22.1° 1021.1 hPa 3.7 m/s 9.5 mm 22.2° 1021.2 hPa 3.7 m/s 20.5° 1019.4 hPa 3.3 m/s 9.5 mm
23:00 18.8° 1022.2 hPa 3.6 m/s 9.5 mm 18.9° 1022.3 hPa 3.5 m/s 16.9° 1020.9 hPa 4.8 m/s 9.5 mm
 04:55     21:38    Daglengte: 16:43 Zondag 23 Jun
02:00 15.5° 1023.2 hPa 3.3 m/s 9.5 mm 15.7° 1023.4 hPa 3.3 m/s 13.7° 1021.0 hPa 3.5 m/s 9.5 mm
05:00 15.7° 1023.8 hPa 3.0 m/s 9.5 mm 16.1° 1024.0 hPa 3.0 m/s 11.8° 1020.9 hPa 2.5 m/s 9.5 mm
08:00 16.4° 1024.5 hPa 2.8 m/s 9.5 mm 16.5° 1024.7 hPa 2.8 m/s 15.6° 1021.7 hPa 2.6 m/s 9.5 mm
11:00 20.8° 1024.2 hPa 2.9 m/s 9.5 mm 20.8° 1024.5 hPa 2.8 m/s 21.0° 1021.8 hPa 3.2 m/s 9.5 mm
14:00 25.0° 1024.0 hPa 3.0 m/s 9.5 mm 25.1° 1024.2 hPa 2.9 m/s 24.0° 1021.5 hPa 3.8 m/s 9.5 mm
17:00 24.4° 1023.5 hPa 3.1 m/s 9.5 mm 24.4° 1023.7 hPa 3.0 m/s 24.1° 1020.8 hPa 4.1 m/s 9.5 mm
20:00 23.5° 1023.1 hPa 3.1 m/s 9.5 mm 23.7° 1023.2 hPa 3.1 m/s 20.9° 1021.5 hPa 3.0 m/s 9.5 mm
23:00 19.1° 1024.4 hPa 3.0 m/s 9.5 mm 19.5° 1024.5 hPa 3.0 m/s 15.2° 1023.0 hPa 3.0 m/s 9.5 mm
 04:55     21:38    Daglengte: 16:43 Maandag 24 Jun
02:00 15.1° 1025.6 hPa 2.7 m/s 9.5 mm 15.3° 1025.8 hPa 2.8 m/s 12.5° 1023.6 hPa 1.9 m/s 9.5 mm
05:00 15.6° 1026.0 hPa 2.3 m/s 9.5 mm 16.0° 1026.2 hPa 2.4 m/s 11.1° 1023.8 hPa 1.1 m/s 9.5 mm
08:00 16.7° 1026.4 hPa 2.0 m/s 9.5 mm 16.7° 1026.6 hPa 2.0 m/s 16.1° 1024.5 hPa 2.0 m/s 9.5 mm
11:00 21.8° 1025.8 hPa 2.2 m/s 9.5 mm 21.9° 1025.9 hPa 2.1 m/s 21.4° 1024.3 hPa 2.2 m/s 9.5 mm
14:00 26.8° 1025.1 hPa 2.3 m/s 9.5 mm 27.0° 1025.2 hPa 2.3 m/s 25.2° 1023.7 hPa 2.6 m/s 9.5 mm
17:00 26.7° 1024.5 hPa 2.6 m/s 9.5 mm 26.8° 1024.6 hPa 2.7 m/s 26.1° 1023.0 hPa 1.8 m/s 9.5 mm
20:00 26.3° 1023.9 hPa 3.0 m/s 9.5 mm 26.5° 1024.0 hPa 3.1 m/s 23.8° 1023.2 hPa 1.5 m/s 9.5 mm
23:00 22.3° 1025.0 hPa 2.8 m/s 9.5 mm 22.6° 1025.0 hPa 2.9 m/s 18.8° 1024.5 hPa 2.2 m/s 9.5 mm
 04:55     21:38    Daglengte: 16:43 Dinsdag 25 Jun
02:00 18.5° 1026.0 hPa 2.7 m/s 9.5 mm 18.7° 1026.1 hPa 2.7 m/s 16.5° 1024.7 hPa 2.5 m/s 9.5 mm
05:00 19.4° 1026.2 hPa 2.6 m/s 9.5 mm 19.8° 1026.4 hPa 2.7 m/s 15.3° 1024.3 hPa 2.3 m/s 9.5 mm
08:00 20.8° 1026.5 hPa 2.7 m/s 9.5 mm 20.9° 1026.7 hPa 2.6 m/s 19.8° 1024.7 hPa 3.7 m/s 9.5 mm
11:00 25.9° 1025.9 hPa 3.4 m/s 9.5 mm 25.9° 1026.1 hPa 3.2 m/s 25.4° 1024.3 hPa 4.9 m/s 9.5 mm
14:00 30.7° 1025.3 hPa 4.0 m/s 9.5 mm 30.9° 1025.4 hPa 3.9 m/s 28.3° 1023.7 hPa 5.2 m/s 9.5 mm
17:00 30.0° 1024.6 hPa 3.5 m/s 9.5 mm 30.1° 1024.7 hPa 3.3 m/s 28.7° 1023.0 hPa 4.7 m/s 9.5 mm
20:00 28.9° 1023.9 hPa 2.9 m/s 9.5 mm 29.3° 1024.0 hPa 2.8 m/s 24.7° 1022.4 hPa 3.7 m/s 9.5 mm
23:00 23.9° 1024.5 hPa 2.6 m/s 9.5 mm 24.3° 1024.7 hPa 2.5 m/s 19.7° 1023.2 hPa 3.7 m/s 9.5 mm
 04:56     21:38    Daglengte: 16:42 Woensdag 26 Jun
02:00 19.1° 1025.1 hPa 2.2 m/s 9.5 mm 19.3° 1025.3 hPa 2.1 m/s 17.3° 1022.7 hPa 3.2 m/s 9.5 mm
05:00 20.5° 1025.0 hPa 2.5 m/s 9.5 mm 20.9° 1025.3 hPa 2.5 m/s 16.2° 1022.2 hPa 3.3 m/s 9.5 mm
08:00 22.4° 1025.0 hPa 2.9 m/s 9.5 mm 22.5° 1025.3 hPa 2.8 m/s 20.8° 1021.9 hPa 4.1 m/s 9.5 mm
11:00 27.6° 1023.9 hPa 3.6 m/s 9.5 mm 27.6° 1024.1 hPa 3.5 m/s 26.5° 1021.2 hPa 4.7 m/s 9.5 mm
14:00 32.6° 1022.7 hPa 4.2 m/s 9.5 mm 32.8° 1022.9 hPa 4.2 m/s 30.5° 1020.4 hPa 4.5 m/s 9.5 mm
20:00 31.0° 1019.8 hPa 1.9 m/s 9.5 mm 31.2° 1019.9 hPa 1.9 m/s 28.6° 1018.8 hPa 1.4 m/s 9.5 mm
 04:56     21:38    Daglengte: 16:42 Donderdag 27 Jun
02:00 22.5° 1019.2 hPa 2.4 m/s 9.5 mm 22.6° 1019.2 hPa 2.4 m/s 21.5° 1018.7 hPa 2.0 m/s 9.5 mm
08:00 25.2° 1017.0 hPa 1.8 m/s 9.5 mm 25.3° 1016.9 hPa 1.7 m/s 24.2° 1017.9 hPa 2.3 m/s 9.5 mm
14:00 36.4° 1014.8 hPa 3.4 m/s 9.5 mm 36.6° 1014.7 hPa 3.5 m/s 33.8° 1016.2 hPa 2.3 m/s 9.5 mm
20:00 34.6° 1012.7 hPa 2.3 m/s 9.5 mm 34.9° 1012.5 hPa 2.3 m/s 31.3° 1014.7 hPa 1.8 m/s 9.5 mm
 04:57     21:38    Daglengte: 16:41 Vrijdag 28 Jun
02:00 24.3° 1012.8 hPa 1.4 m/s 9.5 mm 24.5° 1012.5 hPa 1.4 m/s 21.9° 1015.6 hPa 1.9 m/s 9.5 mm
08:00 28.0° 1012.1 hPa 1.9 m/s 9.5 mm 28.3° 1011.9 hPa 1.9 m/s 25.0° 1014.6 hPa 2.1 m/s 9.5 mm
14:00 36.3° 1011.1 hPa 6.0 m/s 9.5 mm 36.5° 1010.8 hPa 6.3 m/s 33.6° 1013.9 hPa 2.7 m/s 9.5 mm
20:00 33.0° 1011.8 hPa 4.4 m/s 11.8 mm 33.5° 1011.5 hPa 4.3 m/s 27.7° 1014.8 hPa 5.6 m/s 11.8 mm
 04:58     21:38    Daglengte: 16:40 Zaterdag 29 Jun
02:00 23.3° 1013.3 hPa 1.9 m/s 11.9 mm 23.8° 1012.8 hPa 1.7 m/s 17.9° 1018.7 hPa 3.5 m/s 11.9 mm
08:00 17.5° 1014.4 hPa 1.6 m/s 0.3 mm
14:00 24.2° 1013.5 hPa 1.5 m/s 0.6 mm
20:00 22.8° 1012.6 hPa 1.7 m/s 0.3 mm
 04:58     21:37    Daglengte: 16:39 Zondag 30 Jun
02:00 15.6° 1013.7 hPa 0.5 m/s 0.4 mm
08:00 17.6° 1013.4 hPa 1.0 m/s 0.3 mm
14:00 24.1° 1012.4 hPa 1.6 m/s 0.7 mm
20:00 22.5° 1011.7 hPa 1.2 m/s 0.7 mm
 04:59     21:37    Daglengte: 16:38 Maandag 01 Jul
02:00 15.7° 1012.8 hPa 1.0 m/s 0.6 mm
08:00 17.0° 1013.0 hPa 1.9 m/s 0.5 mm
14:00 22.6° 1012.2 hPa 2.1 m/s 1.0 mm
20:00 21.7° 1011.5 hPa 2.0 m/s 0.8 mm
 05:00     21:37    Daglengte: 16:37 Dinsdag 02 Jul
02:00 15.1° 1012.5 hPa 1.4 m/s 0.6 mm
08:00 16.3° 1012.8 hPa 2.4 m/s 1.2 mm
14:00 22.3° 1012.1 hPa 3.2 m/s 1.0 mm
20:00 20.6° 1011.9 hPa 3.0 m/s 1.6 mm
 05:00     21:36    Daglengte: 16:36 Woensdag 03 Jul
02:00 13.5° 1013.8 hPa 2.4 m/s 1.3 mm
08:00 15.2° 1014.5 hPa 3.4 m/s 0.5 mm
14:00 21.0° 1014.4 hPa 3.8 m/s 0.6 mm
20:00 20.1° 1014.1 hPa 2.7 m/s 0.5 mm
 05:01     21:36    Daglengte: 16:35 Donderdag 04 Jul
02:00 13.7° 1015.6 hPa 1.9 m/s 0.3 mm
08:00 15.6° 1016.3 hPa 3.0 m/s 0.2 mm
FMI Hirlam - 7.5 km EWN WRFDA - 12 km DWD ICON - 7 km GFS - 25 km Basiskaart






























































Updatetijd (Europe/Amsterdam) Resolutie Lengte Stap
FMI Hirlam 13:00, 19:00, 01:00, 07:00 7.5 km 49h 1h
EWN WRFDA 10:15, 16:15, 22:15, 04:15 12 km 73h 1h
DWD ICON 11:45, 17:45, 23:45, 05:45 7 km 75h 1h
GFS 08:45, 14:45, 20:45, 02:45 25 km 237h 3h
30+ mm
25-30 mm
20-25 mm
15-20 mm
10-15 mm
6-10 mm
4-6 mm
2-4 mm
1-2 mm
0.5-1 mm
0.2-0.5 mm
0.1-0.2 mm
30+ mm
25-30 mm
20-25 mm
15-20 mm
10-15 mm
6-10 mm
4-6 mm
2-4 mm
1-2 mm
0.5-1 mm
0.2-0.5 mm
0.1-0.2 mm
Sneeuwval
Natte sneeuw
Hagel
Vorst
30+ mm
25-30 mm
20-25 mm
15-20 mm
10-15 mm
6-10 mm
4-6 mm
2-4 mm
1-2 mm
0.5-1 mm
0.2-0.5 mm
0.1-0.2 mm
Sneeuwval
Natte sneeuw
Hagel
Vorst
Onweer
50 mm
40 mm
30 mm
26 mm
22 mm
18 mm
14 mm
10 mm
9 mm
8 mm
7 mm
6 mm
5 mm
4.5 mm
4 mm
3.5 mm
3 mm
2.5 mm
2 mm
1.5 mm
1 mm
0.8 mm
0.6 mm
0.4 mm
0.2 mm
0.05 mm
35°
30°
25°
20°
15°
10°
-5°
-10°
-15°
-20°
-25°
-30°
-35°
33> m/s
29 m/s
25 m/s
21 m/s
17 m/s
14 m/s
11 m/s
8 m/s
5 m/s
3 m/s
0 m/s
2600 J/kg
2400 J/kg
2200 J/kg
2000 J/kg
1800 J/kg
1600 J/kg
1400 J/kg
1200 J/kg
1000 J/kg
800 J/kg
600 J/kg
400 J/kg
200 J/kg
70 dBZ
65 dBZ
60 dBZ
55 dBZ
50 dBZ
45 dBZ
40 dBZ
35 dBZ
30 dBZ
25 dBZ
20 dBZ
15 dBZ
10 dBZ
5 dBZ
-1 K
-2 K
-3 K
-4 K
-5 K
-6 K
-7 K
-8 K
-9 K
950 m²/s²
900 m²/s²
850 m²/s²
800 m²/s²
750 m²/s²
700 m²/s²
650 m²/s²
600 m²/s²
550 m²/s²
500 m²/s²
450 m²/s²
400 m²/s²
350 m²/s²
300 m²/s²
250 m²/s²
200 m²/s²
150 m²/s²
100 m²/s²
46 m/s
44 m/s
42 m/s
40 m/s
38 m/s
36 m/s
34 m/s
32 m/s
30 m/s
28 m/s
26 m/s
24 m/s
22 m/s
20 m/s
16 m/s
12 m/s
8 m/s
4 m/s
30 m/s
28 m/s
26 m/s
24 m/s
22 m/s
20 m/s
18 m/s
16 m/s
14 m/s
12 m/s
10 m/s
8 m/s
6 m/s
4 m/s
2 m/s
3.0
2.8
2.6
2.4
2.2
2.0
1.8
1.6
1.4
1.2
1.0
0.8
0.6
0.4
0.2
15
14
13
12
11
10
9
8
7
6
5
4
3
2
1
90%
80%
70%
60%
50%
40%
30%
20%
10%
42
40
38
36
34
32
30
28
26
24
22
20
18
16
14
12
90+ cm
80-90 cm
70-80 cm
60-70 cm
50-60 cm
40-50 cm
30-40 cm
20-30 cm
10-20 cm
1-10 cm
Sneeuwval
Natte sneeuw
Regen
>120 mm
115 mm
110 mm
105 mm
100 mm
95 mm
90 mm
85 mm
80 mm
75 mm
70 mm
65 mm
60 mm
55 mm
50 mm
45 mm
45 mm
40 mm
35 mm
30 mm
25 mm
20 mm
15 mm
10 mm
5 mm
0.1 mm
960 hPa
880 hPa
800 hPa
720 hPa
640 hPa
560 hPa
584 gpdm
568 gpdm
552 gpdm
536 gpdm
520 gpdm
504 gpdm
488 gpdm
Extreem zwaar Noodweer Kans op onweer
15% 15% 5% 50% 15%

Dag




Kaart






35°
30°
25°
20°
15°
10°
-5°
-10°
-15°
-20°
-25°
-30°
-35°
33> m/s
29 m/s